[[{"header":{"parameterUnit":"m.s-1","parameterCategory":1,"la1":30.2992,"la2":30.254,"lo1":-89.0895,"lo2":-89.0443,"dy":0.0025,"dx":0.0025,"nx":19,"ny":19,"refTime":"2026-03-12T03:00:00:Z","depth":0,"parameterNumber":2,"parameterNumberName":"U-component_of_WINDS"},"data":[0,0,0,-0.098,-0.0982,-0.1094,-0.1095,-0.122,-0.1221,0,0,0,0,0,0,0,0,0,0,0,-0.0937,-0.0938,-0.098,-0.0982,-0.1094,-0.1095,-0.1219,-0.1221,0,0,0,0,0,0,0,0,0,0,0,-0.0937,-0.0938,-0.0938,-0.0983,-0.1094,-0.1095,-0.1219,-0.1141,0,0,0,0,0,0,0,0,0,0,-0.1035,-0.0987,-0.0937,-0.0938,-0.0983,-0.1094,-0.1095,-0.1137,-0.1146,-0.1162,0,-0.1175,0,-0.12,-0.1228,-0.1228,0,0,0,-0.0989,-0.098,-0.1019,-0.0938,-0.0984,-0.1094,-0.1045,-0.1142,-0.1152,-0.1173,-0.1177,-0.1182,-0.1202,-0.1229,-0.1229,-0.1302,-0.1302,0,0,-0.0983,-0.0952,-0.1012,-0.1024,-0.1008,-0.1042,-0.1049,-0.1148,-0.115,-0.1177,-0.1185,-0.1204,-0.1229,-0.123,-0.1302,-0.1302,0,0,0,-0.096,-0.0947,-0.0984,-0.1019,-0.104,-0.1045,-0.1053,-0.1146,-0.116,-0.1186,-0.1205,-0.123,-0.1231,-0.1302,-0.1302,-0.1275,0,0,0,-0.0957,-0.0934,-0.0981,-0.0963,-0.1038,-0.1095,-0.1048,-0.1153,-0.1166,-0.1205,-0.123,-0.1232,-0.1302,-0.1302,-0.1276,-0.1267,0,0,0,-0.0933,-0.0932,-0.0945,-0.0962,-0.1009,-0.1094,-0.1115,-0.1157,-0.1177,-0.1228,-0.1233,-0.1302,-0.1302,-0.1276,-0.1268,-0.1277,0,0,0,-0.0898,-0.0918,-0.0944,-0.0973,-0.1008,-0.1076,-0.1114,-0.1167,-0.1208,-0.1231,-0.1302,-0.1302,-0.1277,-0.1269,-0.1278,-0.128,-0.1278,0,0,-0.0906,-0.0918,-0.0938,-0.0964,-0.1021,-0.1062,-0.1114,-0.118,-0.1212,-0.127,-0.1272,-0.1275,-0.1268,-0.1277,-0.1277,-0.1275,0,0,0,-0.093,-0.0944,-0.0965,-0.1004,-0.1055,-0.1098,-0.116,-0.1184,-0.1235,-0.1236,-0.1282,-0.1279,-0.1285,-0.1288,-0.1286,-0.1293,-0.1302,-0.1302,-0.1302,-0.0897,-0.0938,-0.0973,-0.1028,-0.1064,-0.1127,-0.116,-0.1203,-0.1233,-0.1243,-0.1261,-0.1256,-0.1257,-0.1256,-0.1263,-0.1265,-0.1265,-0.1265,-0.1265,-0.0913,-0.0938,-0.0978,-0.1027,-0.1069,-0.111,-0.117,-0.119,-0.1233,-0.1246,-0.1254,-0.1264,-0.1253,-0.1261,-0.1263,-0.1264,-0.1264,-0.1264,-0.1264,-0.0896,-0.0915,-0.0945,-0.1005,-0.1046,-0.1099,-0.1139,-0.1176,-0.1211,-0.1219,-0.1241,-0.1242,-0.1247,-0.1227,-0.1227,-0.1227,-0.1227,-0.1227,-0.1227,-0.0867,-0.0901,-0.0931,-0.0987,-0.1017,-0.106,-0.1123,-0.1152,-0.1194,-0.1217,-0.1218,-0.1246,-0.1245,-0.1243,-0.1227,-0.1227,-0.1227,-0.1227,-0.1227,-0.0867,-0.0873,-0.0919,-0.0948,-0.1017,-0.1054,-0.1101,-0.1158,-0.1187,-0.1205,-0.1232,-0.1225,-0.1239,-0.1241,-0.124,-0.1224,-0.1224,-0.1224,-0.1224,-0.0853,-0.0864,-0.0919,-0.0964,-0.1011,-0.1058,-0.1107,-0.1155,-0.1206,-0.1227,-0.1234,-0.1237,-0.1236,-0.1251,-0.1252,-0.1252,-0.1239,-0.1239,-0.1239,-0.0855,-0.0873,-0.0908,-0.0959,-0.1016,-0.1062,-0.1109,-0.1157,-0.1216,-0.124,-0.1243,-0.1243,-0.1247,-0.1246,-0.127,-0.1271,-0.1272,0,0]},{"header":{"parameterUnit":"m.s-1","parameterCategory":1,"la1":30.2992,"la2":30.254,"lo1":-89.0895,"lo2":-89.0443,"dy":0.0025,"dx":0.0025,"nx":19,"ny":19,"refTime":"2026-03-12T03:00:00:Z","depth":0,"parameterNumber":3,"parameterNumberName":"V-component_of_WINDS"},"data":[0,0,0,6.7165,6.7168,6.7329,6.733,6.7531,6.7533,0,0,0,0,0,0,0,0,0,0,0,6.7115,6.7116,6.7164,6.7169,6.7329,6.733,6.7531,6.7533,0,0,0,0,0,0,0,0,0,0,0,6.7114,6.7116,6.7118,6.7169,6.7329,6.733,6.753,6.741,0,0,0,0,0,0,0,0,0,0,6.7255,6.7207,6.7116,6.7118,6.717,6.7329,6.733,6.7405,6.7418,6.7457,0,6.7491,0,6.7516,6.7546,6.7547,0,0,0,6.7169,6.7196,6.7242,6.7118,6.7172,6.7329,6.7257,6.7412,6.7427,6.7474,6.7494,6.7502,6.7519,6.7547,6.7548,6.7776,6.7777,0,0,6.716,6.7142,6.7231,6.7251,6.7228,6.7252,6.7262,6.7421,6.7441,6.7495,6.7507,6.7522,6.7549,6.755,6.7775,6.7776,0,0,0,6.7134,6.7136,6.7178,6.7243,6.7272,6.7256,6.7268,6.7434,6.745,6.7509,6.7525,6.755,6.7552,6.7774,6.7775,6.7811,0,0,0,6.7129,6.7121,6.7174,6.7164,6.7269,6.7355,6.7278,6.7438,6.7457,6.7524,6.755,6.7554,6.7773,6.7775,6.7808,6.783,0,0,0,6.7105,6.7118,6.7141,6.7163,6.7232,6.7353,6.7378,6.7443,6.7467,6.7547,6.7555,6.7772,6.7774,6.7805,6.7825,6.7888,0,0,0,6.7074,6.7167,6.7141,6.7252,6.7231,6.7375,6.7377,6.7484,6.7557,6.7551,6.7773,6.7775,6.7804,6.7822,6.7884,6.7937,6.7958,0,0,6.7181,6.7179,6.7246,6.7228,6.7372,6.7351,6.7501,6.7583,6.7605,6.7718,6.7723,6.7809,6.7825,6.7887,6.8075,6.8091,0,0,0,6.7273,6.7321,6.7364,6.7434,6.7502,6.7563,6.7624,6.7656,6.7753,6.766,6.7848,6.7858,6.7895,6.7921,6.7935,6.7969,6.7786,6.7786,6.7786,6.7397,6.7426,6.7539,6.7588,6.7656,6.7722,6.778,6.7834,6.7837,6.7882,6.7915,6.8027,6.8057,6.8067,6.8102,6.7945,6.7945,6.7945,6.7945,6.7558,6.7632,6.7641,6.7754,6.7784,6.7878,6.7947,6.7948,6.8041,6.8002,6.8036,6.7993,6.8084,6.8116,6.7948,6.7948,6.7947,6.7947,6.7947,6.7643,6.7684,6.7723,6.7832,6.7913,6.7958,6.8049,6.8071,6.8092,6.8126,6.8165,6.8165,6.8168,6.8143,6.8143,6.8144,6.8144,6.8144,6.8145,6.7716,6.776,6.7835,6.7919,6.797,6.804,6.8111,6.8161,6.8222,6.8231,6.8232,6.8233,6.8088,6.8051,6.8151,6.815,6.8149,6.8148,6.8148,6.787,6.784,6.7956,6.8008,6.8111,6.8191,6.822,6.8322,6.8367,6.8412,6.8408,6.8296,6.8294,6.8284,6.8254,6.84,6.84,6.84,6.84,6.7942,6.7946,6.8072,6.8154,6.8236,6.8276,6.8407,6.8465,6.8519,6.8549,6.8531,6.8493,6.8481,6.8487,6.8472,6.8445,6.8636,6.8636,6.8636,6.804,6.8053,6.816,6.8216,6.83,6.8371,6.8496,6.859,6.8644,6.8646,6.8573,6.8563,6.8503,6.8481,6.8479,6.8456,6.8406,0,0]}]]